Find Starlink 37083

NORAD ID: 68227 Int'l Des: 2026-053 Owner: SPXS Country: US Constellation: starlink operational
LEOCIRCULARRETROGRADE

リアルタイム位置

3D地球を読み込み中...

Starlink 37083について

説明を読み込み中...

次回通過

Passes for default location (London). Set your location on the main map for personalized predictions.

高度履歴

Loading altitude history...

軌道要素

1 68227U 26053W 26122.14097418 .00032041 00000-0 99025-3 0 9996
2 68227 97.2845 357.9793 0001440 133.8443 226.2919 15.33456016 8384
Epoch: May 2, 2026 • Age: 6 hours

現在のステータス

高度 486.1 km
速度 7.62 km/s
衛星直下点 -52.52°S, 171.96°E
打ち上げ日 Mar 17, 2026
運用期間 0.1 years
タイプ internet

技術仕様

分類 Payload
質量 575.00 kg
乾燥質量 530.00 kg
総質量 575.00 kg
長さ 0.30 m
直径 4.10 m
スパン 29.00 m
形状 Box + pan
製造者 SPXS
バスタイプ Starlink V2MO
フェーズステータス In Orbit
所有者/国 SPXS/US

Most Searched